EN

Hourly Weather Altenkrempe

Today, 28 January, Thursday

Time Temperature Precipitation Wind Pressure Humidity
00:00 0°C° 0.1 mm 5 mps 753 mmHg 96%
01:00 0°C° 0 mm 4 mps 753 mmHg 94%
02:00 0°C° 0 mm 5 mps 753 mmHg 92%
03:00 -2°C° 0 mm 6 mps 753 mmHg 90%
04:00 -2°C° 0 mm 7 mps 753 mmHg 88%
05:00 -2°C° 0 mm 6 mps 753 mmHg 85%
06:00 -2°C° 0 mm 5 mps 753 mmHg 83%
07:00 -2°C° 0 mm 5 mps 753 mmHg 80%
08:00 -2°C° 0 mm 4 mps 753 mmHg 79%
09:00 -2°C° 0 mm 4 mps 753 mmHg 78%
10:00 -1°C° 0 mm 3 mps 753 mmHg 78%
11:00 -1°C° 0 mm 3 mps 752 mmHg 76%
12:00 -1°C° 0 mm 3 mps 752 mmHg 74%
13:00 0°C° 0 mm 3 mps 752 mmHg 72%
14:00 0°C° 0 mm 3 mps 752 mmHg 74%
15:00 -1°C° 0 mm 3 mps 752 mmHg 75%
16:00 -1°C° 0 mm 3 mps 752 mmHg 77%
17:00 -1°C° 0 mm 3 mps 752 mmHg 78%
18:00 -1°C° 0 mm 3 mps 752 mmHg 80%
19:00 -2°C° 0 mm 3 mps 752 mmHg 81%
20:00 -2°C° 0 mm 3 mps 752 mmHg 80%
21:00 -2°C° 0 mm 3 mps 752 mmHg 80%
22:00 -2°C° 0 mm 2 mps 752 mmHg 79%
23:00 -2°C° 0 mm 2 mps 752 mmHg 79%

Tomorrow, 29 January, Friday

Time Temperature Precipitation Wind Pressure Humidity
00:00 0°C° 0 mm 1 mps 752 mmHg 78%
01:00 0°C° 0 mm 1 mps 752 mmHg 78%
02:00 0°C° 0 mm 1 mps 752 mmHg 78%
03:00 -2°C° 0 mm 2 mps 751 mmHg 77%
04:00 -2°C° 0 mm 2 mps 751 mmHg 77%
05:00 -2°C° 0 mm 3 mps 750 mmHg 76%
06:00 -3°C° 0 mm 4 mps 749 mmHg 75%
07:00 -4°C° 0 mm 5 mps 749 mmHg 75%
08:00 -4°C° 0 mm 5 mps 748 mmHg 70%
09:00 -3°C° 0 mm 6 mps 748 mmHg 66%
10:00 -3°C° 0 mm 6 mps 747 mmHg 62%
11:00 -3°C° 0.1 mm 6 mps 747 mmHg 61%
12:00 -3°C° 0.1 mm 6 mps 746 mmHg 59%
13:00 -2°C° 0.1 mm 6 mps 746 mmHg 58%
14:00 -2°C° 0.3 mm 6 mps 746 mmHg 60%
15:00 -1°C° 0.3 mm 5 mps 746 mmHg 63%
16:00 -2°C° 0.3 mm 4 mps 746 mmHg 66%
17:00 -2°C° 0 mm 4 mps 746 mmHg 71%
18:00 -2°C° 0 mm 4 mps 746 mmHg 76%
19:00 -3°C° 0 mm 4 mps 746 mmHg 81%
20:00 -3°C° 0 mm 4 mps 747 mmHg 82%
21:00 -3°C° 0 mm 4 mps 747 mmHg 84%
22:00 -3°C° 0 mm 4 mps 747 mmHg 85%
23:00 -3°C° 0.2 mm 4 mps 748 mmHg 88%

Day after tomorrow, 30 January, Saturday

Time Temperature Precipitation Wind Pressure Humidity
00:00 -3°C° 0.2 mm 4 mps 748 mmHg 92%
01:00 -3°C° 0.2 mm 4 mps 748 mmHg 95%
02:00 -4°C° 0.4 mm 5 mps 748 mmHg 94%
03:00 -4°C° 0.4 mm 6 mps 749 mmHg 92%
04:00 -4°C° 0.4 mm 7 mps 749 mmHg 91%
05:00 -4°C° 0.1 mm 6 mps 749 mmHg 89%
06:00 -4°C° 0.1 mm 6 mps 749 mmHg 88%
07:00 -4°C° 0.1 mm 6 mps 749 mmHg 87%
08:00 -4°C° 0 mm 5 mps 750 mmHg 85%
09:00 -3°C° 0 mm 4 mps 750 mmHg 84%
10:00 -3°C° 0 mm 4 mps 750 mmHg 82%
11:00 -1°C° 0 mm 3 mps 750 mmHg 79%
12:00 -1°C° 0 mm 2 mps 750 mmHg 76%
13:00 -1°C° 0 mm 2 mps 750 mmHg 73%
14:00 -1°C° 0 mm 2 mps 750 mmHg 75%
15:00 -2°C° 0 mm 2 mps 750 mmHg 77%
16:00 0°C° 0 mm 1 mps 750 mmHg 78%
17:00 -1°C° 0 mm 1 mps 750 mmHg 79%
18:00 -1°C° 0 mm 1 mps 751 mmHg 80%
19:00 -2°C° 0 mm 1 mps 751 mmHg 81%
20:00 -2°C° 0 mm 1 mps 751 mmHg 81%
21:00 -4°C° 0 mm 2 mps 751 mmHg 81%
22:00 -4°C° 0 mm 2 mps 751 mmHg 81%
23:00 -4°C° 0 mm 2 mps 751 mmHg 82%

31 January, Sunday

Time Temperature Precipitation Wind Pressure Humidity
00:00 -5°C° 0 mm 3 mps 751 mmHg 83%
01:00 -5°C° 0 mm 3 mps 751 mmHg 83%
02:00 -5°C° 0 mm 3 mps 751 mmHg 83%
03:00 -5°C° 0 mm 3 mps 751 mmHg 83%
04:00 -5°C° 0 mm 3 mps 750 mmHg 83%
05:00 -5°C° 0 mm 4 mps 750 mmHg 83%
06:00 -5°C° 0 mm 4 mps 751 mmHg 82%
07:00 -5°C° 0 mm 4 mps 751 mmHg 81%
08:00 -5°C° 0 mm 4 mps 751 mmHg 79%
09:00 -5°C° 0 mm 4 mps 750 mmHg 77%
10:00 -5°C° 0 mm 5 mps 750 mmHg 76%
11:00 -5°C° 0 mm 5 mps 750 mmHg 74%
12:00 -4°C° 0 mm 5 mps 750 mmHg 73%
13:00 -2°C° 0 mm 5 mps 750 mmHg 71%
14:00 -3°C° 0 mm 4 mps 749 mmHg 73%
15:00 -3°C° 0 mm 4 mps 749 mmHg 76%
16:00 -3°C° 0 mm 4 mps 748 mmHg 78%
17:00 -4°C° 0 mm 4 mps 748 mmHg 79%
18:00 -4°C° 0 mm 3 mps 748 mmHg 80%
19:00 -5°C° 0 mm 3 mps 748 mmHg 81%
20:00 -5°C° 0 mm 3 mps 748 mmHg 81%
21:00 -5°C° 0 mm 3 mps 748 mmHg 81%
22:00 -5°C° 0 mm 3 mps 748 mmHg 81%
23:00 -5°C° 0 mm 3 mps 748 mmHg 81%

1 February, Monday

Time Temperature Precipitation Wind Pressure Humidity
00:00 -6°C° 0 mm 3 mps 748 mmHg 81%
01:00 -6°C° 0 mm 3 mps 748 mmHg 81%
02:00 -6°C° 0 mm 3 mps 748 mmHg 79%
03:00 -5°C° 0 mm 2 mps 747 mmHg 78%
04:00 -5°C° 0 mm 2 mps 747 mmHg 77%
05:00 -5°C° 0 mm 2 mps 748 mmHg 76%
06:00 -5°C° 0 mm 2 mps 748 mmHg 76%
07:00 -5°C° 0 mm 2 mps 748 mmHg 76%
08:00 -4°C° 0 mm 2 mps 749 mmHg 75%
09:00 -4°C° 0 mm 2 mps 749 mmHg 75%
10:00 -3°C° 0 mm 2 mps 750 mmHg 75%
11:00 -2°C° 0 mm 2 mps 750 mmHg 75%
12:00 -1°C° 0 mm 3 mps 750 mmHg 74%
13:00 -1°C° 0 mm 3 mps 751 mmHg 74%
14:00 -1°C° 0 mm 3 mps 751 mmHg 77%
15:00 -1°C° 0 mm 3 mps 751 mmHg 80%
16:00 -1°C° 0 mm 3 mps 752 mmHg 83%
17:00 -3°C° 0 mm 4 mps 752 mmHg 86%
18:00 -3°C° 0 mm 4 mps 753 mmHg 88%
19:00 -4°C° 0 mm 4 mps 754 mmHg 90%
20:00 -4°C° 0 mm 4 mps 754 mmHg 91%
21:00 -4°C° 0 mm 4 mps 755 mmHg 92%
22:00 -4°C° 0 mm 4 mps 755 mmHg 93%
23:00 -4°C° 0 mm 4 mps 756 mmHg 94%

2 February, Tuesday

Time Temperature Precipitation Wind Pressure Humidity
00:00 -4°C° 0 mm 3 mps 756 mmHg 94%
01:00 -5°C° 0 mm 3 mps 757 mmHg 95%
02:00 -5°C° 0 mm 3 mps 757 mmHg 93%
03:00 -5°C° 0 mm 3 mps 757 mmHg 91%
04:00 -5°C° 0 mm 3 mps 757 mmHg 89%
05:00 -5°C° 0 mm 3 mps 758 mmHg 88%
06:00 -5°C° 0 mm 3 mps 758 mmHg 87%
07:00 -5°C° 0 mm 3 mps 758 mmHg 86%
08:00 -5°C° 0 mm 3 mps 758 mmHg 85%
09:00 -4°C° 0 mm 3 mps 758 mmHg 84%
10:00 -4°C° 0 mm 3 mps 758 mmHg 82%
11:00 -2°C° 0 mm 3 mps 758 mmHg 80%
12:00 -3°C° 0 mm 4 mps 757 mmHg 77%
13:00 -2°C° 0 mm 4 mps 757 mmHg 75%
14:00 -2°C° 0 mm 4 mps 756 mmHg 78%
15:00 -4°C° 0 mm 5 mps 755 mmHg 80%
16:00 -4°C° 0 mm 6 mps 755 mmHg 83%
17:00 -4°C° 0 mm 6 mps 754 mmHg 82%
18:00 -4°C° 0 mm 7 mps 753 mmHg 80%
19:00 -5°C° 0 mm 8 mps 752 mmHg 79%
20:00 -5°C° 0.9 mm 9 mps 751 mmHg 84%
21:00 -5°C° 0.9 mm 9 mps 750 mmHg 90%
22:00 -5°C° 0.9 mm 9 mps 749 mmHg 96%
23:00 -4°C° 0.5 mm 8 mps 749 mmHg 96%
Show more